Year,Month,Day,Hour,Minute,Value (Times are PST for insolation in W/m^2)
2008,12,25,10,59,88.00
2008,12,25,11,00,88.90
2008,12,25,11,01,92.20
2008,12,25,11,02,96.40
2008,12,25,11,03,98.00
2008,12,25,11,04,104.70
2008,12,25,11,05,116.30
2008,12,25,11,06,128.70
2008,12,25,11,07,137.10
2008,12,25,11,08,139.00
2008,12,25,11,09,139.00
2008,12,25,11,10,145.20
2008,12,25,11,11,148.80
2008,12,25,11,12,152.80
2008,12,25,11,13,153.00
2008,12,25,11,14,153.00
2008,12,25,11,15,167.40
2008,12,25,11,16,141.10
2008,12,25,11,17,144.50
2008,12,25,11,18,155.80
2008,12,25,11,19,148.70
2008,12,25,11,20,152.20
2008,12,25,11,21,156.60
2008,12,25,11,22,157.00
2008,12,25,11,23,152.60
2008,12,25,11,24,144.00
2008,12,25,11,25,137.00
2008,12,25,11,26,142.80
2008,12,25,11,27,164.30
2008,12,25,11,28,201.40
2008,12,25,11,29,214.00
2008,12,25,11,30,214.00
2008,12,25,11,31,291.00
2008,12,25,11,32,313.00
2008,12,25,11,33,452.60
2008,12,25,11,34,444.40
2008,12,25,11,35,424.00
2008,12,25,11,36,412.20
2008,12,25,11,37,404.00
2008,12,25,11,38,396.60
2008,12,25,11,39,356.50
2008,12,25,11,40,397.30
2008,12,25,11,41,398.60
2008,12,25,11,42,398.00
2008,12,25,11,43,401.90
2008,12,25,11,44,406.60
2008,12,25,11,45,414.50
2008,12,25,11,46,424.00
2008,12,25,11,47,425.90
2008,12,25,11,48,394.00
2008,12,25,11,49,364.00
2008,12,25,11,50,362.00
2008,12,25,11,51,232.00
2008,12,25,11,52,167.00
2008,12,25,11,53,145.60
2008,12,25,11,54,128.60
2008,12,25,11,55,104.30
2008,12,25,11,56,117.90
2008,12,25,11,57,85.90
2008,12,25,11,58,84.00
2008,12,25,11,59,84.00
2008,12,25,12,00,86.00
2008,12,25,12,01,137.90
2008,12,25,12,02,127.00
2008,12,25,12,03,126.00
2008,12,25,12,04,117.50
2008,12,25,12,05,100.00
2008,12,25,12,06,101.10
2008,12,25,12,07,105.00
2008,12,25,12,08,108.50
2008,12,25,12,09,113.40
2008,12,25,12,10,118.00
2008,12,25,12,11,126.00
2008,12,25,12,12,134.00
2008,12,25,12,13,146.00
2008,12,25,12,14,155.00
2008,12,25,12,15,160.80
2008,12,25,12,16,167.00
2008,12,25,12,17,169.00
2008,12,25,12,18,169.00
2008,12,25,12,19,170.80
2008,12,25,12,20,189.70
2008,12,25,12,21,231.70
2008,12,25,12,22,234.00
2008,12,25,12,23,396.00
2008,12,25,12,24,441.40
2008,12,25,12,25,489.10
2008,12,25,12,26,480.50
2008,12,25,12,27,473.00
2008,12,25,12,28,471.00
2008,12,25,12,29,464.00
2008,12,25,12,30,458.00
2008,12,25,12,31,440.20
2008,12,25,12,32,432.20
2008,12,25,12,33,434.00
2008,12,25,12,34,436.60
2008,12,25,12,35,441.30
2008,12,25,12,36,443.00
2008,12,25,12,37,443.00
2008,12,25,12,38,405.80
2008,12,25,12,39,334.30
2008,12,25,12,40,311.00
2008,12,25,12,41,311.00
2008,12,25,12,42,311.00
2008,12,25,12,43,311.00
2008,12,25,12,44,311.00
2008,12,25,12,45,155.00
2008,12,25,12,46,148.00
2008,12,25,12,47,177.10
2008,12,25,12,48,144.80
2008,12,25,12,49,151.00
2008,12,25,12,50,151.00
2008,12,25,12,51,151.00
2008,12,25,12,52,151.00
2008,12,25,12,53,158.70
2008,12,25,12,54,163.50
2008,12,25,12,55,138.40
2008,12,25,12,56,130.00
2008,12,25,12,57,132.60
2008,12,25,12,58,138.30
2008,12,25,12,59,141.00
2008,12,25,13,00,144.30
2008,12,25,13,01,147.40
2008,12,25,13,02,146.40
2008,12,25,13,03,144.40
2008,12,25,13,04,144.00
2008,12,25,13,05,142.20
2008,12,25,13,06,142.00
2008,12,25,13,07,141.10
2008,12,25,13,08,141.00
2008,12,25,13,09,144.10
2008,12,25,13,10,148.70
2008,12,25,13,11,144.00
2008,12,25,13,12,143.70
2008,12,25,13,13,142.00
2008,12,25,13,14,141.70
2008,12,25,13,15,141.00
2008,12,25,13,16,141.00
2008,12,25,13,17,140.20
2008,12,25,13,18,138.10
2008,12,25,13,19,134.60
2008,12,25,13,20,132.00
2008,12,25,13,21,126.80
2008,12,25,13,22,119.90
2008,12,25,13,23,118.00
2008,12,25,13,24,116.60
2008,12,25,13,25,116.00
2008,12,25,13,26,114.40
2008,12,25,13,27,114.00
2008,12,25,13,28,111.30
2008,12,25,13,29,109.10
2008,12,25,13,30,109.00
2008,12,25,13,31,100.00
2008,12,25,13,32,97.00
2008,12,25,13,33,95.00
2008,12,25,13,34,95.00
2008,12,25,13,35,94.70
2008,12,25,13,36,92.60
2008,12,25,13,37,90.70
2008,12,25,13,38,90.00
2008,12,25,13,39,90.00
2008,12,25,13,40,90.40
2008,12,25,13,41,91.00
2008,12,25,13,42,91.90
2008,12,25,13,43,93.00
2008,12,25,13,44,93.00
2008,12,25,13,45,93.00
2008,12,25,13,46,93.00
2008,12,25,13,47,91.70
2008,12,25,13,48,90.30
2008,12,25,13,49,90.00
2008,12,25,13,50,88.30
2008,12,25,13,51,88.00
2008,12,25,13,52,86.10
2008,12,25,13,53,84.10
2008,12,25,13,54,83.00
2008,12,25,13,55,81.00
2008,12,25,13,56,78.90
2008,12,25,13,57,75.40
2008,12,25,13,58,69.20
2008,12,25,13,59,63.90
2008,12,25,14,00,58.70
2008,12,25,14,01,53.70
2008,12,25,14,02,53.00
2008,12,25,14,03,51.40
2008,12,25,14,04,47.70
2008,12,25,14,05,46.00
2008,12,25,14,06,47.60
2008,12,25,14,07,52.90
2008,12,25,14,08,58.40
2008,12,25,14,09,60.00
2008,12,25,14,10,70.10
2008,12,25,14,11,75.40
2008,12,25,14,12,72.90
2008,12,25,14,13,70.30
2008,12,25,14,14,67.30
2008,12,25,14,15,63.20
2008,12,25,14,16,63.00
2008,12,25,14,17,65.00
2008,12,25,14,18,63.00
2008,12,25,14,19,63.00
2008,12,25,14,20,62.10
2008,12,25,14,21,53.50
2008,12,25,14,22,51.00
2008,12,25,14,23,49.90
2008,12,25,14,24,47.00
2008,12,25,14,25,47.70
2008,12,25,14,26,49.00
2008,12,25,14,27,49.00
2008,12,25,14,28,49.00
2008,12,25,14,29,49.00
2008,12,25,14,30,52.90
2008,12,25,14,31,62.90
2008,12,25,14,32,70.30
2008,12,25,14,33,74.90
2008,12,25,14,34,76.00
2008,12,25,14,35,76.80
2008,12,25,14,36,82.00
2008,12,25,14,37,87.40
2008,12,25,14,38,88.00
2008,12,25,14,39,95.00
2008,12,25,14,40,95.00
2008,12,25,14,41,95.00
2008,12,25,14,42,71.70
2008,12,25,14,43,68.10
2008,12,25,14,44,75.70
2008,12,25,14,45,69.00
2008,12,25,14,46,68.10
2008,12,25,14,47,64.40
2008,12,25,14,48,62.70
2008,12,25,14,49,60.00
2008,12,25,14,50,55.00
2008,12,25,14,51,52.20
2008,12,25,14,52,50.00
2008,12,25,14,53,61.50
2008,12,25,14,54,56.40
2008,12,25,14,55,40.80
2008,12,25,14,56,39.30
2008,12,25,14,57,39.00
2008,12,25,14,58,39.00
2008,12,25,14,59,39.00
2008,12,25,15,00,39.00
2008,12,25,15,01,37.10
2008,12,25,15,02,35.10
2008,12,25,15,03,33.00
2008,12,25,15,04,33.00
2008,12,25,15,05,29.90
2008,12,25,15,06,27.80
2008,12,25,15,07,26.00
2008,12,25,15,08,25.80
2008,12,25,15,09,25.00
2008,12,25,15,10,24.40
2008,12,25,15,11,23.00
2008,12,25,15,12,23.00
2008,12,25,15,13,23.00
2008,12,25,15,14,23.00
2008,12,25,15,15,23.00
2008,12,25,15,16,23.00
2008,12,25,15,17,21.80
2008,12,25,15,18,21.00
2008,12,25,15,19,21.00
2008,12,25,15,20,21.00
2008,12,25,15,21,21.00
2008,12,25,15,22,21.00
2008,12,25,15,23,21.00
2008,12,25,15,24,21.00
2008,12,25,15,25,21.00
2008,12,25,15,26,21.00
2008,12,25,15,27,21.00
2008,12,25,15,28,21.00
2008,12,25,15,29,21.00
2008,12,25,15,30,21.30
2008,12,25,15,31,23.00
2008,12,25,15,32,23.00
2008,12,25,15,33,23.00
2008,12,25,15,34,23.00
2008,12,25,15,35,23.00
2008,12,25,15,36,23.00
2008,12,25,15,37,22.10
2008,12,25,15,38,21.00
2008,12,25,15,39,22.20
2008,12,25,15,40,23.00
2008,12,25,15,41,21.70
2008,12,25,15,42,21.00
2008,12,25,15,43,21.00
2008,12,25,15,44,21.00
2008,12,25,15,45,21.00
2008,12,25,15,46,21.00
2008,12,25,15,47,21.00
2008,12,25,15,48,21.00
2008,12,25,15,49,21.00
2008,12,25,15,50,21.00
2008,12,25,15,51,21.00
2008,12,25,15,52,21.00
2008,12,25,15,53,21.00
2008,12,25,15,54,20.60
2008,12,25,15,55,19.00
2008,12,25,15,56,19.00
2008,12,25,15,57,18.70
2008,12,25,15,58,18.00
2008,12,25,15,59,17.10
2008,12,25,16,00,16.00
2008,12,25,16,01,16.00
2008,12,25,16,02,16.00
2008,12,25,16,03,16.00
2008,12,25,16,04,16.00
2008,12,25,16,05,16.00
2008,12,25,16,06,16.00
2008,12,25,16,07,16.00
2008,12,25,16,08,16.00
2008,12,25,16,09,16.00
2008,12,25,16,10,16.00
